KE8BSM Weather Reports


Display with metric or nautical units.
time (UTC)temp
F
wind
direction
speed
MPH
gust
MPH
rain 1hr
in
rain 24hr
in
rain mn
in
humidity
%
barometer
mb
20260506123827 42 0.0 0.0 0.00 0.00 0.00 76 1012.7
20260506122848 41 184 1.0 2.0 0.00 0.00 0.00 75 1012.5
20260506121828 41 357 3.0 3.0 0.00 0.00 0.00 78 1012.5
20260506120828 41 0 2.0 3.0 0.00 0.00 0.00 76 1012.4
20260506115828 40 15 2.0 3.0 0.00 0.00 0.00 78 1012.3
20260506114828 39 334 2.0 3.0 0.00 0.00 0.00 77 1012.0
20260506113828 39 345 2.0 2.0 0.00 0.00 0.00 80 1011.8
20260506112829 38 332 1.0 2.0 0.00 0.00 0.00 81 1011.7
20260506111829 38 344 2.0 3.0 0.00 0.00 0.00 86 1011.4
20260506110829 38 354 1.0 2.0 0.00 0.00 0.00 89 1011.2
20260506105829 37 316 1.0 2.0 0.00 0.00 0.00 86 1011.0
20260506104829 38 0.0 0.0 0.00 0.00 0.00 86 1011.0
20260506103849 38 288 1.0 1.0 0.00 0.00 0.00 86 1011.2
20260506102829 38 290 0.0 0.0 0.00 0.00 0.00 87 1011.2
20260506101849 38 0.0 0.0 0.00 0.00 0.00 86 1011.2
20260506100830 39 305 1.0 1.0 0.00 0.00 0.00 83 1011.2
20260506095830 39 0.0 0.0 0.00 0.00 0.00 85 1011.2
20260506094815 39 267 1.0 1.0 0.00 0.00 0.00 84 1011.0
20260506093815 39 283 1.0 1.0 0.00 0.00 0.00 85 1010.9
20260506092850 39 276 0.0 1.0 0.00 0.00 0.00 86 1010.9
20260506091816 39 290 1.0 2.0 0.00 0.00 0.00 88 1010.6
20260506090836 39 320 0.0 1.0 0.00 0.00 0.00 87 1010.5
20260506085815 39 323 1.0 1.0 0.00 0.00 0.00 88 1010.4
20260506084816 40 308 1.0 1.0 0.00 0.00 0.00 87 1010.4
20260506083836 40 262 0.0 1.0 0.00 0.00 0.00 88 1010.3
20260506082836 40 264 0.0 1.0 0.00 0.00 0.00 86 1010.3
20260506081816 40 0.0 0.0 0.00 0.00 0.00 86 1010.2
20260506080817 40 325 1.0 2.0 0.00 0.00 0.00 85 1010.3
20260506072816 41 288 0.0 1.0 0.00 0.00 0.00 83 1010.5
20260506071816 41 324 1.0 1.0 0.00 0.00 0.00 81 1010.5
20260506070816 41 330 0.0 2.0 0.00 0.00 0.00 82 1010.5
20260506061815 43 0.0 0.0 0.00 0.00 0.00 76 1010.5
20260506060816 43 304 0.0 1.0 0.00 0.00 0.00 76 1010.7
20260506050816 44 342 1.0 2.0 0.00 0.00 0.00 73 1010.6
20260506044817 44 287 1.0 2.0 0.00 0.00 0.00 74 1010.7
20260506043817 44 310 1.0 2.0 0.00 0.00 0.00 73 1010.5
20260506042817 44 333 1.0 2.0 0.00 0.00 0.00 71 1009.8
20260506041817 44 334 0.0 2.0 0.00 0.00 0.00 72 1010.1
20260506040817 44 345 1.0 3.0 0.00 0.00 0.00 72 1010.0
20260506035818 44 339 1.0 3.0 0.00 0.00 0.00 70 1009.9
20260506034818 44 314 0.0 1.0 0.00 0.00 0.00 69 1010.0
20260506033818 44 0.0 0.0 0.00 0.00 0.00 68 1009.8
20260506032835 44 347 1.0 2.0 0.00 0.00 0.00 69 1009.5
20260506031815 45 331 0.0 1.0 0.00 0.00 0.00 69 1009.8
20260506030815 45 232 1.0 2.0 0.00 0.00 0.00 70 1010.0
20260506025836 45 237 0.0 1.0 0.00 0.00 0.00 68 1010.0
20260506024815 45 217 1.0 2.0 0.00 0.00 0.00 68 1009.7
20260506023816 45 307 0.0 1.0 0.00 0.00 0.00 65 1009.5
20260506022816 46 237 0.0 2.0 0.00 0.00 0.00 66 1009.5
20260506021816 46 0.0 0.0 0.00 0.00 0.00 67 1009.3
20260506020816 46 225 0.0 1.0 0.00 0.00 0.00 65 1009.3
20260506015516 46 0.0 0.0 0.00 0.00 0.00 65 1009.2
20260506014516 47 284 0.0 1.0 0.00 0.00 0.00 63 1009.1
20260506013517 47 0.0 0.0 0.00 0.00 0.00 63 1008.9
20260506012517 48 317 0.0 1.0 0.00 0.00 0.00 60 1008.8
20260506011517 48 249 0.0 0.0 0.00 0.00 0.00 59 1008.7
20260506010517 49 0.0 0.0 0.00 0.00 0.00 56 1008.6
20260506005517 49 0.0 0.0 0.00 0.00 0.00 55 1008.7
20260506004517 50 0.0 0.0 0.00 0.00 0.00 54 1008.6
20260506003537 50 8 0.0 2.0 0.00 0.00 0.00 52 1008.4
20260506002558 50 247 1.0 2.0 0.00 0.00 0.00 51 1008.3
20260506001536 50 0.0 0.0 0.00 0.00 0.00 51 1008.4
20260506000518 50 193 2.0 3.0 0.00 0.00 0.00 51 1008.5
20260505235516 50 338 2.0 3.0 0.00 0.00 0.00 51 1008.3
20260505234515 51 226 0.0 1.0 0.00 0.00 0.00 49 1008.4
20260505233516 51 213 0.0 3.0 0.00 0.00 0.00 49 1008.4
20260505232516 51 261 1.0 2.0 0.00 0.00 0.00 47 1008.4
20260505231517 51 327 1.0 2.0 0.00 0.00 0.00 51 1008.4
20260505230516 51 326 1.0 2.0 0.00 0.00 0.00 50 1008.4
20260505225516 51 202 1.0 3.0 0.00 0.00 0.00 47 1008.3
20260505224516 51 175 1.0 4.0 0.00 0.00 0.00 44 1008.5
20260505223517 51 263 1.0 3.0 0.00 0.00 0.00 48 1008.4
20260505222537 51 209 2.0 4.0 0.00 0.00 0.00 46 1008.4
20260505221517 51 245 1.0 2.0 0.00 0.00 0.00 48 1008.4
20260505220517 51 201 1.0 3.0 0.00 0.00 0.00 47 1008.3
20260505215517 51 43 3.0 5.0 0.00 0.00 0.00 47 1008.3
20260505214558 52 325 2.0 4.0 0.00 0.00 0.00 47 1008.4
20260505213537 52 182 3.0 6.0 0.00 0.00 0.00 46 1008.5
20260505212538 52 216 1.0 3.0 0.00 0.00 0.00 46 1008.5
20260505211535 52 201 3.0 5.0 0.00 0.00 0.00 47 1008.3
20260505210518 52 351 2.0 3.0 0.00 0.00 0.00 46 1008.5
20260505205515 52 287 2.0 3.0 0.00 0.00 0.00 46 1008.6
20260505204535 53 347 1.0 3.0 0.00 0.00 0.00 45 1008.4
20260505203516 53 207 3.0 5.0 0.00 0.00 0.00 44 1008.5
20260505202516 54 31 5.0 8.0 0.00 0.00 0.00 44 1008.7
20260505201516 53 215 5.0 8.0 0.00 0.00 0.00 44 1008.6
20260505200536 52 225 2.0 4.0 0.00 0.00 0.00 43 1008.7
20260505195516 52 266 1.0 3.0 0.00 0.00 0.00 47 1008.7
20260505194517 53 28 3.0 5.0 0.00 0.00 0.00 43 1008.5
20260505193537 53 251 2.0 3.0 0.00 0.00 0.00 46 1008.6
20260505192517 53 211 2.0 6.0 0.00 0.00 0.00 44 1008.5
20260505191517 53 41 6.0 9.0 0.00 0.00 0.00 44 1008.4
20260505190517 52 290 3.0 6.0 0.00 0.00 0.00 44 1008.4
20260505185517 52 265 3.0 6.0 0.00 0.00 0.00 47 1008.2
20260505184517 52 317 4.0 7.0 0.00 0.00 0.00 44 1008.3
20260505183518 52 28 5.0 9.0 0.00 0.00 0.00 44 1008.3
20260505182558 52 140 3.0 7.0 0.00 0.00 0.00 42 1008.1
20260505181518 52 237 6.0 11.0 0.00 0.00 0.00 43 1008.0
20260505180515 52 325 6.0 7.0 0.00 0.00 0.00 44 1008.3
20260505175515 52 9 4.0 6.0 0.00 0.00 0.00 43 1008.3
20260505174535 52 244 2.0 5.0 0.00 0.00 0.00 43 1008.0
20260505173515 52 60 4.0 8.0 0.00 0.00 0.00 40 1007.7
20260505172536 52 22 3.0 7.0 0.00 0.00 0.00 41 1007.6
20260505171519 52 35 4.0 6.0 0.00 0.00 0.00 43 1007.5
20260505170519 52 347 4.0 5.0 0.00 0.00 0.00 39 1007.4
20260505165519 52 6 3.0 5.0 0.00 0.00 0.00 42 1007.2
20260505164516 52 8 3.0 5.0 0.00 0.00 0.00 39 1007.3
20260505163519 52 2 4.0 9.0 0.00 0.00 0.00 39 1007.6
20260505162519 51 23 2.0 4.0 0.00 0.00 0.00 39 1007.2
20260505161520 51 238 2.0 4.0 0.00 0.00 0.00 38 1007.5
20260505160559 51 139 3.0 5.0 0.00 0.00 0.00 36 1007.5
20260505152517 51 359 4.0 10.0 0.00 0.00 0.00 40 1007.4
20260505151520 50 10 5.0 7.0 0.00 0.00 0.00 38 1007.6
20260505150540 50 320 2.0 3.0 0.00 0.00 0.00 46 1007.8
20260505140515 50 307 2.0 3.0 0.00 0.00 0.00 55 1007.3
20260505124539 48 242 2.0 4.0 0.00 0.00 0.00 72 1006.8